User: anonymous
Location: Hepcat Sky Observatory
(29.9800°N, 95.6500°W)
Time: 19:34:39
(UTC-05:00)
Language:

SL-16 Debris - Orbit

View from above orbital plane
View from above orbital plane
View from above satellite
View from above satellite

Ground track
Ground track

The orbit data is extracted from the following two-line orbital elements,

1 26076U 99040E   14200.87353937  .00006507  00000-0  60614-3 0  4088
2 26076 028.4722 063.6884 4677696 093.9514 002.3555 06.20691886245242
Epoch (UTC): 19 July 2014 20:57:53
Eccentricity: 0.4677696
inclination: 28.4722°
perigee height: 278 km
apogee height: 11979 km
right ascension of ascending node: 63.6884°
argument of perigee: 93.9514°
revolutions per day: 6.20691886
mean anomaly at epoch: 2.3555°
orbit number at epoch: 24524

The dashed part of the orbit path shows where the satellite is in the earth's shadow,  

DLR